User: anonymous   Login
Location: Niverville
(49.6028°N, 97.0419°W)
Time: 20:29:39
(UTC-05:00)
Language:

BREEZE-M DEB (TANK) - Orbit

View from above orbital plane
View from above orbital plane
View from above satellite
View from above satellite

Ground track
Ground track

The orbit data is extracted from the following two-line orbital elements,

1 33374U 08044B   15210.79758672  .00000622  00000-0  28683-3 0  9996
2 33374 049.4832 046.1470 5426211 032.1239 019.3509 04.85819015120512
Epoch (UTC): 29 July 2015 19:08:31
Eccentricity: 0.5426211
inclination: 49.4832°
perigee height: 357 km
apogee height: 16338 km
right ascension of ascending node: 46.1470°
argument of perigee: 32.1239°
revolutions per day: 4.85819015
mean anomaly at epoch: 19.3509°
orbit number at epoch: 12051

The dashed part of the orbit path shows where the satellite is in the earth's shadow,  

DLR